User: anonymous   Login
Location: Fort Worth, Tx
(32.7431°N, 97.3695°W)
Time: 10:27:23
(UTC-04:00)
Language:

Transit 4A - Orbit

View from above orbital plane
View from above orbital plane
View from above satellite
View from above satellite

Ground track
Ground track

The orbit data is extracted from the following two-line orbital elements,

1 00116U 61015A   24146.61034690  .00000140  00000-0  16657-3 0  9990
2 00116  66.8099 291.9750 0068589  79.7771 281.1034 13.92044121191945
Epoch (UTC): 25 May 2024 14:38:53
Eccentricity: 0.0068589
inclination: 66.8099°
perigee height: 871 km
apogee height: 971 km
right ascension of ascending node: 291.9750°
argument of perigee: 79.7771°
revolutions per day: 13.92044121
mean anomaly at epoch: 281.1034°
orbit number at epoch: 19194

The dashed part of the orbit path shows where the satellite is in the earth's shadow,  

DLR